Home > Weather > Wels > Past weeks

Flag for Austria Weather for the Past 2 Weeks in Wels, Upper Austria, Austria

Now
48 °F

Light rain. Passing clouds.


Feels Like: 46 °F
Forecast: 46 / 61 °F
Wind: 5 mph from Northeast

Location: Linz / Hoersching-Flughafen

Current Time: May 2, 2016 at 6:23:06 AM

Latest Report: May 2, 2016 at 5:50 AM


Visibility: N/A

Pressure: 30.09 "Hg

Humidity: 87%

Dew Point: 45 °F

Location of WelsLocation

Historic Weather in Wels — Graph

°F

Wels Temperature Yesterday

Maximum temperature yesterday: 55 °F (at 8:50 AM)
Minimum temperature yesterday: 50 °F (at 12:50 AM)
Average temperature yesterday: 52 °F

High & Low Weather Summary for the Past Weeks

 TemperatureHumidityPressure
High68 °F (Apr 22, 3:50 PM)100% (Apr 17, 10:20 PM)30.36 "Hg (Apr 17, 10:20 PM)
Low30 °F (Apr 28, 1:20 AM)21% (Apr 30, 5:20 PM)29.59 "Hg (Apr 17, 4:50 AM)
Average48 °F69%29.98 "Hg
* Reported Apr 17 4:20 AM — May 2 4:50 AM, Wels, Weather by CustomWeather, © 2016

Note: Actual official high and low records may vary slightly from our data, if they occured in-between our weather recording intervals... More about our weather records

Advertising

Wels Weather History for the Previous 24 Hours

Scroll right to see more
 ConditionsComfort  
Time TempWeatherWind HumidityBarometerVisibility
4:50 AM
Mon, May 2
50 °FPassing clouds.6 mph76%30.09 "HgN/A
4:20 AM50 °FPassing clouds.6 mph82%30.09 "HgN/A
3:50 AM48 °FPassing clouds.1 mph100%30.09 "Hg6 mi
3:20 AM48 °FFog.2 mph100%30.09 "Hg3 mi
2:50 AM48 °FFog.3 mph100%30.09 "Hg3 mi
1:50 AM48 °FFog.5 mph100%30.09 "Hg4 mi
12:50 AM50 °FFog.5 mph94%30.09 "Hg4 mi
12:20 AM50 °FSprinkles. Fog.2 mph94%30.09 "Hg5 mi
11:50 PM
Sun, May 1
50 °FPassing clouds.2 mph94%30.09 "Hg4 mi
11:20 PM50 °FPassing clouds.2 mph94%30.09 "Hg5 mi
10:50 PM50 °FPartly cloudy.5 mph94%30.09 "HgN/A
10:20 PM50 °FPartly cloudy.5 mph94%30.09 "HgN/A
9:50 PM50 °FPartly cloudy.5 mph94%30.07 "HgN/A
9:20 PM50 °FPartly cloudy.5 mph94%30.07 "HgN/A
8:50 PM50 °FBroken clouds.3 mph94%30.07 "HgN/A
8:20 PM50 °FBroken clouds.3 mph100%30.07 "HgN/A
7:50 PM52 °FLight rain. Broken clouds.7 mph94%30.04 "HgN/A
7:20 PM52 °FLight rain. Broken clouds.3 mph94%30.07 "HgN/A
6:50 PM52 °FRain. Broken clouds.5 mph94%30.07 "HgN/A
6:20 PM54 °FLight rain. Broken clouds.2 mph88%30.04 "HgN/A
5:50 PM54 °FRain. Partly sunny.5 mph88%30.04 "HgN/A
5:20 PM54 °FLight rain. Partly sunny.3 mph88%30.04 "HgN/A
4:50 PM54 °FLight rain. Partly sunny.3 mph88%30.04 "HgN/A
4:20 PM54 °FLight rain. Partly sunny.6 mph88%30.04 "HgN/A
3:50 PM54 °FLight rain. Partly sunny.6 mph88%30.01 "Hg5 mi
3:20 PM54 °FLight rain. Partly sunny.6 mph88%30.01 "HgN/A
2:50 PM52 °FLight rain. Partly sunny.9 mph88%30.01 "HgN/A
2:20 PM54 °FLight rain. Partly sunny.12 mph82%30.01 "HgN/A
1:50 PM54 °FLight rain. Broken clouds.12 mph72%30.01 "HgN/A
1:20 PM55 °FLight rain. Broken clouds.12 mph67%30.01 "HgN/A
12:50 PM55 °FLight rain. Broken clouds.12 mph67%30.01 "HgN/A
12:20 PM55 °FLight rain. Broken clouds.13 mph67%30.01 "HgN/A
11:50 AM55 °FBroken clouds.16 mph63%29.98 "HgN/A
11:20 AM55 °FPassing clouds.15 mph63%29.98 "HgN/A
10:50 AM55 °FSunny.16 mph59%29.98 "Hg10 mi
10:20 AM55 °FSunny.20 mph59%29.98 "Hg10 mi
9:50 AM55 °FPassing clouds.13 mph59%29.95 "HgN/A
8:50 AM55 °FSunny.14 mph59%29.92 "Hg10 mi
8:20 AM54 °FSunny.13 mph58%29.92 "Hg10 mi
7:50 AM54 °FSunny.10 mph58%29.92 "Hg10 mi
7:20 AM52 °FSunny.12 mph62%29.89 "Hg10 mi
6:20 AM50 °FClear.10 mph67%29.89 "Hg10 mi
Weather by CustomWeather, © 2016

See weather overviewHow to use our weather pages